Location: Unspecified
(0.0000°N, 0.0000°E)
Time: 05:02:51
(UTC+00:00)

N. Korean satellite - Pass Details

Date: 19 April 2021
Orbit: 450 x 501 km, 97.2° (Epoch: 16 May)

Event Time Altitude Azimuth Distance (km) Brightness Sun altitude
Rises 04:44:46 0° 20° (NNE) 2,490 10.6 -18.2°
Reaches altitude 10° 04:46:52 10° 26° (NNE) 1,609 9.7 -17.7°
Maximum altitude 04:50:12 48° 101° (E) 610 7.4 -16.9°
Drops below altitude 10° 04:53:30 10° 176° (S) 1,594 9.1 -16.1°
Sets 04:55:34 0° 182° (S) 2,464 10.0 -15.6°
